| time (UTC) | temp F | wind direction | speed knots | gust knots | rain 1hr in | rain 24hr in | rain mn in | humidity % | barometer mb |
| 20260507094036 | 24 | 194 | 0.0 | 0.0 | 0.00 | 0.00 | 0.00 | 58 | 982.3 |
| 20260507093535 | 24 | 194 | 0.0 | 0.0 | 0.00 | 0.00 | 0.00 | 59 | 982.2 |
| 20260507093034 | 24 | 194 | 0.0 | 0.0 | 0.00 | 0.00 | 0.00 | 58 | 982.4 |
| 20260507092534 | 24 | 194 | 0.0 | 0.0 | 0.00 | 0.00 | 0.00 | 58 | 982.3 |
| 20260507092031 | 24 | 194 | 0.0 | 0.0 | 0.00 | 0.00 | 0.00 | 57 | 982.4 |
| 20260507091550 | 24 | 194 | 0.0 | 0.0 | 0.00 | 0.00 | 0.00 | 57 | 982.3 |
| 20260507091031 | 25 | 194 | 0.0 | 0.0 | 0.00 | 0.00 | 0.00 | 57 | 982.3 |
| 20260507090533 | 25 | 194 | 0.0 | 0.0 | 0.00 | 0.00 | 0.00 | 56 | 982.3 |
| 20260507090031 | 25 | 194 | 0.0 | 2.6 | 0.00 | 0.00 | 0.00 | 56 | 982.3 |
| 20260507085532 | 26 | 194 | 0.9 | 2.6 | 0.00 | 0.00 | 0.00 | 55 | 982.3 |
| 20260507085031 | 26 | 198 | 0.9 | 2.6 | 0.00 | 0.00 | 0.00 | 54 | 982.3 |
| 20260507084529 | 26 | 197 | 1.7 | 3.5 | 0.00 | 0.00 | 0.00 | 54 | 982.4 |
| 20260507084030 | 26 | 198 | 0.9 | 3.5 | 0.00 | 0.00 | 0.00 | 54 | 982.4 |
| 20260507083530 | 26 | 195 | 0.9 | 2.6 | 0.00 | 0.00 | 0.00 | 54 | 982.3 |
| 20260507083030 | 27 | 197 | 0.9 | 4.3 | 0.00 | 0.00 | 0.00 | 54 | 982.4 |
| 20260507082530 | 27 | 204 | 0.0 | 5.2 | 0.00 | 0.00 | 0.00 | 54 | 982.3 |
| 20260507082028 | 26 | 166 | 0.9 | 5.2 | 0.00 | 0.00 | 0.00 | 54 | 982.3 |
| 20260507081540 | 26 | 183 | 0.0 | 4.3 | 0.00 | 0.00 | 0.00 | 54 | 982.3 |
| 20260507081028 | 26 | 167 | 0.0 | 4.3 | 0.00 | 0.00 | 0.00 | 54 | 982.3 |
| 20260507080527 | 26 | 113 | 0.9 | 2.6 | 0.00 | 0.00 | 0.00 | 54 | 982.4 |
| 20260507080027 | 26 | 200 | 0.0 | 2.6 | 0.00 | 0.00 | 0.00 | 54 | 982.5 |
| 20260507075527 | 26 | 215 | 0.0 | 2.6 | 0.00 | 0.00 | 0.00 | 54 | 982.4 |
| 20260507075026 | 26 | 188 | 0.0 | 1.7 | 0.00 | 0.00 | 0.00 | 54 | 982.4 |
| 20260507074530 | 26 | 165 | 0.0 | 2.6 | 0.00 | 0.00 | 0.00 | 54 | 982.5 |
| 20260507074025 | 26 | 180 | 0.0 | 1.7 | 0.00 | 0.00 | 0.00 | 54 | 982.4 |
| 20260507073525 | 26 | 209 | 0.0 | 2.6 | 0.00 | 0.00 | 0.00 | 54 | 982.4 |
| 20260507073025 | 26 | 167 | 0.9 | 2.6 | 0.00 | 0.00 | 0.00 | 55 | 982.5 |
| 20260507072525 | 26 | 169 | 0.0 | 1.7 | 0.00 | 0.00 | 0.00 | 55 | 982.4 |
| 20260507072024 | 26 | 144 | 0.0 | 2.6 | 0.00 | 0.00 | 0.00 | 55 | 982.5 |
| 20260507071523 | 26 | 145 | 0.0 | 0.9 | 0.00 | 0.00 | 0.00 | 55 | 982.5 |
| 20260507071023 | 26 | 194 | 0.0 | 2.6 | 0.00 | 0.00 | 0.00 | 56 | 982.6 |
| 20260507070522 | 25 | 194 | 0.9 | 2.6 | 0.00 | 0.00 | 0.00 | 56 | 982.6 |
| 20260507070023 | 25 | 189 | 0.9 | 2.6 | 0.00 | 0.00 | 0.00 | 57 | 982.7 |
| 20260507065521 | 25 | 196 | 0.9 | 2.6 | 0.00 | 0.00 | 0.00 | 58 | 982.6 |
| 20260507065021 | 25 | 183 | 0.0 | 2.6 | 0.00 | 0.00 | 0.00 | 58 | 982.8 |
| 20260507064523 | 24 | 132 | 0.0 | 0.0 | 0.00 | 0.00 | 0.00 | 58 | 982.7 |
| 20260507064020 | 24 | 132 | 0.0 | 0.0 | 0.00 | 0.00 | 0.00 | 58 | 982.8 |
| 20260507063521 | 24 | 132 | 0.0 | 2.6 | 0.00 | 0.00 | 0.00 | 58 | 982.9 |
| 20260507063019 | 24 | 132 | 0.0 | 2.6 | 0.00 | 0.00 | 0.00 | 58 | 982.8 |
| 20260507062520 | 24 | 132 | 0.0 | 0.9 | 0.00 | 0.00 | 0.00 | 58 | 982.9 |
| 20260507062019 | 24 | 132 | 0.0 | 0.9 | 0.00 | 0.00 | 0.00 | 58 | 982.9 |
| 20260507061529 | 25 | 132 | 0.0 | 0.9 | 0.00 | 0.00 | 0.00 | 58 | 982.9 |
| 20260507061017 | 25 | 132 | 0.0 | 1.7 | 0.00 | 0.00 | 0.00 | 58 | 982.9 |
| 20260507060517 | 25 | 132 | 0.0 | 1.7 | 0.00 | 0.00 | 0.00 | 57 | 982.9 |
| 20260507060027 | 25 | 132 | 0.0 | 1.7 | 0.00 | 0.00 | 0.00 | 56 | 982.9 |
| 20260507055517 | 26 | 132 | 0.0 | 1.7 | 0.00 | 0.00 | 0.00 | 56 | 982.9 |
| 20260507055019 | 26 | 132 | 0.0 | 2.6 | 0.00 | 0.00 | 0.00 | 56 | 982.9 |
| 20260507054517 | 26 | 132 | 0.9 | 2.6 | 0.00 | 0.00 | 0.00 | 57 | 982.9 |
| 20260507054017 | 26 | 164 | 0.0 | 2.6 | 0.00 | 0.00 | 0.00 | 57 | 983.0 |
| 20260507053517 | 25 | 150 | 0.9 | 4.3 | 0.00 | 0.00 | 0.00 | 57 | 983.0 |
| 20260507053017 | 25 | 166 | 0.9 | 4.3 | 0.00 | 0.00 | 0.00 | 58 | 983.0 |
| 20260507052516 | 25 | 101 | 0.9 | 2.6 | 0.00 | 0.00 | 0.00 | 57 | 983.0 |
| 20260507052015 | 25 | 101 | 0.9 | 2.6 | 0.00 | 0.00 | 0.00 | 56 | 983.0 |
| 20260507051515 | 25 | 101 | 1.7 | 2.6 | 0.00 | 0.00 | 0.00 | 56 | 983.0 |
| 20260507051013 | 25 | 101 | 0.9 | 2.6 | 0.00 | 0.00 | 0.00 | 57 | 983.0 |
| 20260507050512 | 26 | 101 | 0.9 | 2.6 | 0.00 | 0.00 | 0.00 | 57 | 983.1 |
| 20260507050024 | 26 | 101 | 0.9 | 2.6 | 0.00 | 0.00 | 0.00 | 56 | 983.0 |
| 20260507045510 | 26 | 101 | 1.7 | 3.5 | 0.00 | 0.00 | 0.00 | 55 | 983.1 |
| 20260507045009 | 27 | 101 | 1.7 | 3.5 | 0.00 | 0.00 | 0.00 | 56 | 983.2 |
| 20260507044523 | 27 | 96 | 1.7 | 3.5 | 0.00 | 0.00 | 0.00 | 56 | 983.2 |
| 20260507044014 | 27 | 91 | 2.6 | 5.2 | 0.00 | 0.00 | 0.00 | 56 | 983.1 |
| 20260507043507 | 27 | 92 | 2.6 | 5.2 | 0.00 | 0.00 | 0.00 | 56 | 983.2 |
| 20260507043007 | 27 | 93 | 2.6 | 3.5 | 0.00 | 0.00 | 0.00 | 56 | 983.2 |
| 20260507042507 | 27 | 94 | 2.6 | 5.2 | 0.00 | 0.00 | 0.00 | 56 | 983.3 |
| 20260507042006 | 28 | 86 | 2.6 | 5.2 | 0.00 | 0.00 | 0.00 | 55 | 983.2 |
| 20260507041505 | 28 | 86 | 2.6 | 5.2 | 0.00 | 0.00 | 0.00 | 56 | 983.2 |
| 20260507041004 | 28 | 86 | 2.6 | 5.2 | 0.00 | 0.00 | 0.00 | 55 | 983.3 |
| 20260507040503 | 28 | 96 | 2.6 | 5.2 | 0.00 | 0.00 | 0.00 | 55 | 983.3 |
| 20260507040002 | 28 | 96 | 2.6 | 5.2 | 0.00 | 0.00 | 0.00 | 55 | 983.3 |
| 20260507035501 | 29 | 92 | 2.6 | 3.5 | 0.00 | 0.00 | 0.00 | 54 | 983.3 |
| 20260507035101 | 29 | 96 | 1.7 | 5.2 | 0.00 | 0.00 | 0.00 | 53 | 983.4 |
| 20260507034605 | 29 | 96 | 1.7 | 6.1 | 0.00 | 0.00 | 0.00 | 54 | 983.4 |
| 20260507034059 | 30 | 90 | 3.5 | 6.1 | 0.00 | 0.00 | 0.00 | 54 | 983.4 |
| 20260507033559 | 30 | 89 | 3.5 | 5.2 | 0.00 | 0.00 | 0.00 | 54 | 983.4 |
| 20260507033059 | 30 | 82 | 3.5 | 6.1 | 0.00 | 0.00 | 0.00 | 54 | 983.4 |
| 20260507032557 | 30 | 78 | 2.6 | 6.1 | 0.00 | 0.00 | 0.00 | 53 | 983.4 |
| 20260507032057 | 30 | 88 | 2.6 | 5.2 | 0.00 | 0.00 | 0.00 | 53 | 983.4 |
| 20260507031556 | 31 | 78 | 2.6 | 4.3 | 0.00 | 0.00 | 0.00 | 53 | 983.5 |
| 20260507031100 | 31 | 76 | 2.6 | 6.1 | 0.00 | 0.00 | 0.00 | 52 | 983.5 |
| 20260507030557 | 32 | 86 | 2.6 | 6.1 | 0.00 | 0.00 | 0.00 | 52 | 983.6 |
| 20260507030106 | 32 | 86 | 3.5 | 7.0 | 0.00 | 0.00 | 0.00 | 51 | 983.6 |
| 20260507025556 | 32 | 88 | 3.5 | 7.8 | 0.00 | 0.00 | 0.00 | 51 | 983.5 |
| 20260507025056 | 33 | 74 | 4.3 | 7.8 | 0.00 | 0.00 | 0.00 | 50 | 983.5 |
| 20260507024607 | 33 | 79 | 3.5 | 7.0 | 0.00 | 0.00 | 0.00 | 50 | 983.5 |
| 20260507024100 | 34 | 78 | 4.3 | 7.0 | 0.00 | 0.00 | 0.00 | 49 | 983.6 |
| 20260507023559 | 35 | 82 | 3.5 | 7.8 | 0.00 | 0.00 | 0.00 | 47 | 983.6 |
| 20260507023056 | 36 | 74 | 4.3 | 9.6 | 0.00 | 0.00 | 0.00 | 45 | 983.6 |
| 20260507022556 | 36 | 69 | 5.2 | 9.6 | 0.00 | 0.00 | 0.00 | 42 | 983.6 |
| 20260507022056 | 37 | 19 | 0.0 | 1.7 | 0.00 | 0.00 | 0.00 | 37 | 983.5 |
| 20260507021615 | 37 | 19 | 0.0 | 0.9 | 0.00 | 0.00 | 0.00 | 37 | 983.4 |
| 20260507021055 | 38 | 19 | 0.0 | 1.7 | 0.00 | 0.00 | 0.00 | 36 | 983.3 |
| 20260507020555 | 38 | 19 | 0.0 | 1.7 | 0.00 | 0.00 | 0.00 | 36 | 983.3 |
| 20260507020104 | 38 | 19 | 0.0 | 2.6 | 0.00 | 0.00 | 0.00 | 36 | 983.3 |
| 20260507015555 | 39 | 20 | 0.9 | 2.6 | 0.00 | 0.00 | 0.00 | 35 | 983.4 |
| 20260507015058 | 39 | 5 | 0.0 | 4.3 | 0.00 | 0.00 | 0.00 | 34 | 983.2 |
| 20260507014612 | 40 | 11 | 1.7 | 5.2 | 0.00 | 0.00 | 0.00 | 34 | 983.0 |
| 20260507014054 | 40 | 24 | 1.7 | 5.2 | 0.00 | 0.00 | 0.00 | 33 | 983.1 |
| 20260507013553 | 40 | 350 | 1.7 | 4.3 | 0.00 | 0.00 | 0.00 | 33 | 983.1 |
| 20260507013056 | 40 | 37 | 0.9 | 7.0 | 0.00 | 0.00 | 0.00 | 32 | 983.2 |
| 20260507012558 | 41 | 19 | 1.7 | 7.0 | 0.00 | 0.00 | 0.00 | 32 | 983.2 |
| 20260507012054 | 41 | 44 | 1.7 | 7.0 | 0.00 | 0.00 | 0.00 | 32 | 983.3 |
| 20260507011553 | 41 | 29 | 1.7 | 7.8 | 0.00 | 0.00 | 0.00 | 32 | 983.3 |
| 20260507011055 | 41 | 40 | 1.7 | 7.8 | 0.00 | 0.00 | 0.00 | 32 | 983.2 |
| 20260507010557 | 42 | 26 | 1.7 | 9.6 | 0.00 | 0.00 | 0.00 | 32 | 983.1 |
| 20260507010107 | 42 | 360 | 3.5 | 9.6 | 0.00 | 0.00 | 0.00 | 32 | 983.1 |
| 20260507005553 | 42 | 28 | 2.6 | 7.8 | 0.00 | 0.00 | 0.00 | 32 | 983.2 |
| 20260507005052 | 42 | 22 | 2.6 | 7.8 | 0.00 | 0.00 | 0.00 | 33 | 983.1 |
| 20260507004552 | 42 | 10 | 3.5 | 9.6 | 0.00 | 0.00 | 0.00 | 32 | 983.1 |
| 20260507004051 | 42 | 355 | 4.3 | 9.6 | 0.00 | 0.00 | 0.00 | 33 | 983.1 |
| 20260507003551 | 42 | 355 | 2.6 | 8.7 | 0.00 | 0.00 | 0.00 | 34 | 983.2 |
| 20260507003051 | 42 | 342 | 3.5 | 8.7 | 0.00 | 0.00 | 0.00 | 34 | 983.1 |
| 20260507002550 | 42 | 21 | 4.3 | 8.7 | 0.00 | 0.00 | 0.00 | 34 | 983.2 |
| 20260507002050 | 42 | 355 | 2.6 | 8.7 | 0.00 | 0.00 | 0.00 | 35 | 983.3 |
| 20260507001552 | 43 | 38 | 3.5 | 8.7 | 0.00 | 0.00 | 0.00 | 34 | 983.3 |
| 20260507001048 | 43 | 5 | 4.3 | 9.6 | 0.00 | 0.00 | 0.00 | 34 | 983.4 |
| 20260507000547 | 43 | 5 | 3.5 | 9.6 | 0.00 | 0.00 | 0.00 | 35 | 983.4 |
| 20260507000048 | 43 | 26 | 3.5 | 9.6 | 0.00 | 0.00 | 0.00 | 34 | 983.5 |
| 20260506235549 | 43 | 355 | 2.6 | 9.6 | 0.00 | 0.00 | 0.00 | 34 | 983.5 |
| 20260506235047 | 43 | 350 | 3.5 | 10.4 | 0.00 | 0.00 | 0.00 | 35 | 983.5 |
| 20260506234548 | 43 | 20 | 3.5 | 10.4 | 0.00 | 0.00 | 0.00 | 35 | 983.5 |
| 20260506234047 | 43 | 5 | 4.3 | 10.4 | 0.00 | 0.00 | 0.00 | 35 | 983.4 |
| 20260506233548 | 43 | 23 | 3.5 | 10.4 | 0.00 | 0.00 | 0.00 | 35 | 983.5 |
| 20260506233052 | 43 | 32 | 5.2 | 10.4 | 0.00 | 0.00 | 0.00 | 35 | 983.5 |
| 20260506232547 | 43 | 325 | 3.5 | 12.2 | 0.00 | 0.00 | 0.00 | 36 | 983.6 |
| 20260506232046 | 43 | 355 | 6.1 | 12.2 | 0.00 | 0.00 | 0.00 | 35 | 983.6 |
| 20260506231546 | 43 | 355 | 5.2 | 9.6 | 0.00 | 0.00 | 0.00 | 36 | 983.7 |
| 20260506231048 | 43 | 336 | 6.1 | 11.3 | 0.00 | 0.00 | 0.00 | 36 | 983.6 |
| 20260506230548 | 43 | 350 | 6.1 | 11.3 | 0.00 | 0.00 | 0.00 | 37 | 983.7 |
| 20260506230046 | 43 | 28 | 6.1 | 11.3 | 0.00 | 0.00 | 0.00 | 35 | 983.8 |
| 20260506225545 | 44 | 323 | 6.1 | 11.3 | 0.00 | 0.00 | 0.00 | 36 | 983.6 |
| 20260506225045 | 44 | 42 | 4.3 | 12.2 | 0.00 | 0.00 | 0.00 | 35 | 983.6 |
| 20260506224545 | 44 | 331 | 5.2 | 12.2 | 0.00 | 0.00 | 0.00 | 36 | 983.5 |
| 20260506224045 | 44 | 346 | 4.3 | 14.8 | 0.00 | 0.00 | 0.00 | 35 | 983.5 |
| 20260506223544 | 44 | 306 | 7.8 | 14.8 | 0.00 | 0.00 | 0.00 | 36 | 983.5 |
| 20260506223046 | 44 | 315 | 6.1 | 10.4 | 0.00 | 0.00 | 0.00 | 36 | 983.6 |
| 20260506222544 | 44 | 338 | 5.2 | 10.4 | 0.00 | 0.00 | 0.00 | 36 | 983.6 |
| 20260506222044 | 44 | 19 | 4.3 | 12.2 | 0.00 | 0.00 | 0.00 | 37 | 983.7 |
| 20260506221545 | 44 | 315 | 7.0 | 12.2 | 0.00 | 0.00 | 0.00 | 37 | 983.6 |
| 20260506221043 | 44 | 346 | 5.2 | 10.4 | 0.00 | 0.00 | 0.00 | 37 | 983.8 |
| 20260506220542 | 43 | 26 | 3.5 | 11.3 | 0.00 | 0.00 | 0.00 | 36 | 983.8 |
| 20260506220044 | 43 | 19 | 5.2 | 11.3 | 0.00 | 0.00 | 0.00 | 36 | 983.8 |
| 20260506215545 | 43 | 314 | 5.2 | 12.2 | 0.00 | 0.00 | 0.00 | 36 | 983.8 |
| 20260506215042 | 44 | 350 | 7.0 | 12.2 | 0.00 | 0.00 | 0.00 | 36 | 983.9 |
| 20260506214544 | 43 | 333 | 6.1 | 11.3 | 0.00 | 0.00 | 0.00 | 38 | 983.9 |
| 20260506214041 | 43 | 45 | 4.3 | 13.0 | 0.00 | 0.00 | 0.00 | 37 | 984.0 |
| 20260506213541 | 44 | 317 | 6.1 | 13.0 | 0.00 | 0.00 | 0.00 | 37 | 984.1 |
| 20260506213040 | 43 | 355 | 5.2 | 13.9 | 0.00 | 0.00 | 0.00 | 37 | 984.0 |
| 20260506212542 | 43 | 355 | 5.2 | 13.9 | 0.00 | 0.00 | 0.00 | 37 | 984.2 |
| 20260506212041 | 43 | 311 | 7.8 | 12.2 | 0.00 | 0.00 | 0.00 | 38 | 984.2 |
| 20260506211538 | 43 | 360 | 4.3 | 10.4 | 0.00 | 0.00 | 0.00 | 37 | 984.3 |
| 20260506211038 | 43 | 15 | 4.3 | 10.4 | 0.00 | 0.00 | 0.00 | 37 | 984.2 |
| 20260506210542 | 43 | 334 | 6.1 | 12.2 | 0.00 | 0.00 | 0.00 | 38 | 984.2 |
| 20260506210038 | 43 | 26 | 5.2 | 12.2 | 0.00 | 0.00 | 0.00 | 38 | 984.3 |
| 20260506205537 | 43 | 337 | 6.1 | 13.0 | 0.00 | 0.00 | 0.00 | 38 | 984.2 |
| 20260506205038 | 43 | 319 | 4.3 | 12.2 | 0.00 | 0.00 | 0.00 | 40 | 984.4 |
| 20260506204535 | 43 | 338 | 5.2 | 13.0 | 0.00 | 0.00 | 0.00 | 39 | 984.6 |
| 20260506204034 | 43 | 288 | 6.1 | 15.6 | 0.00 | 0.00 | 0.00 | 38 | 984.5 |
| 20260506203534 | 43 | 332 | 6.1 | 15.6 | 0.00 | 0.00 | 0.00 | 39 | 984.6 |
| 20260506203034 | 42 | 355 | 5.2 | 13.0 | 0.00 | 0.00 | 0.00 | 39 | 984.6 |
| 20260506202533 | 42 | 341 | 3.5 | 13.0 | 0.00 | 0.00 | 0.00 | 39 | 984.7 |
| 20260506202033 | 42 | 333 | 3.5 | 12.2 | 0.00 | 0.00 | 0.00 | 39 | 984.6 |
| 20260506201542 | 42 | 304 | 6.1 | 12.2 | 0.00 | 0.00 | 0.00 | 40 | 984.9 |
| 20260506201034 | 42 | 340 | 4.3 | 10.4 | 0.00 | 0.00 | 0.00 | 39 | 984.8 |
| 20260506200530 | 43 | 340 | 5.2 | 13.0 | 0.00 | 0.00 | 0.00 | 40 | 984.8 |
| 20260506200031 | 42 | 67 | 7.0 | 13.9 | 0.00 | 0.00 | 0.00 | 41 | 984.8 |
| 20260506195529 | 42 | 33 | 7.0 | 13.9 | 0.00 | 0.00 | 0.00 | 41 | 984.8 |
| 20260506195031 | 41 | 342 | 5.2 | 14.8 | 0.00 | 0.00 | 0.00 | 40 | 985.0 |
| 20260506194534 | 42 | 304 | 6.1 | 14.8 | 0.00 | 0.00 | 0.00 | 43 | 985.1 |
| 20260506194027 | 41 | 325 | 3.5 | 12.2 | 0.00 | 0.00 | 0.00 | 42 | 985.0 |
| 20260506193526 | 41 | 360 | 7.0 | 12.2 | 0.00 | 0.00 | 0.00 | 42 | 985.0 |
| 20260506193026 | 41 | 278 | 7.0 | 14.8 | 0.00 | 0.00 | 0.00 | 42 | 985.2 |
| 20260506192527 | 41 | 339 | 6.1 | 14.8 | 0.00 | 0.00 | 0.00 | 41 | 985.2 |
| 20260506192026 | 41 | 304 | 7.0 | 14.8 | 0.00 | 0.00 | 0.00 | 41 | 985.2 |
| 20260506191525 | 41 | 312 | 7.0 | 14.8 | 0.00 | 0.00 | 0.00 | 42 | 985.3 |
| 20260506191025 | 41 | 284 | 7.8 | 12.2 | 0.00 | 0.00 | 0.00 | 42 | 985.3 |
| 20260506190523 | 41 | 348 | 5.2 | 11.3 | 0.00 | 0.00 | 0.00 | 43 | 985.2 |
| 20260506190023 | 41 | 347 | 3.5 | 12.2 | 0.00 | 0.00 | 0.00 | 42 | 985.4 |
| 20260506185522 | 41 | 312 | 6.1 | 13.9 | 0.00 | 0.00 | 0.00 | 44 | 985.4 |
| 20260506185021 | 40 | 303 | 6.1 | 13.9 | 0.00 | 0.00 | 0.00 | 42 | 985.3 |
| 20260506184520 | 40 | 28 | 5.2 | 13.9 | 0.00 | 0.00 | 0.00 | 42 | 985.5 |
| 20260506184021 | 40 | 5 | 7.0 | 12.2 | 0.00 | 0.00 | 0.00 | 43 | 985.5 |
| 20260506183519 | 40 | 341 | 5.2 | 15.6 | 0.00 | 0.00 | 0.00 | 42 | 985.6 |
| 20260506183018 | 40 | 11 | 8.7 | 15.6 | 0.00 | 0.00 | 0.00 | 43 | 985.6 |
| 20260506182518 | 39 | 334 | 7.0 | 13.0 | 0.00 | 0.00 | 0.00 | 42 | 985.6 |
| 20260506182019 | 40 | 336 | 7.8 | 14.8 | 0.00 | 0.00 | 0.00 | 42 | 985.7 |
| 20260506181518 | 39 | 351 | 7.0 | 14.8 | 0.00 | 0.00 | 0.00 | 41 | 985.7 |
| 20260506181016 | 40 | 311 | 8.7 | 13.9 | 0.00 | 0.00 | 0.00 | 43 | 985.8 |
| 20260506180518 | 40 | 338 | 8.7 | 14.8 | 0.00 | 0.00 | 0.00 | 43 | 985.8 |
| 20260506180016 | 40 | 296 | 10.4 | 14.8 | 0.00 | 0.00 | 0.00 | 44 | 985.9 |
| 20260506175516 | 39 | 331 | 8.7 | 13.9 | 0.00 | 0.00 | 0.00 | 45 | 985.9 |
| 20260506175013 | 39 | 355 | 8.7 | 14.8 | 0.00 | 0.00 | 0.00 | 43 | 986.1 |
| 20260506174513 | 39 | 315 | 6.1 | 14.8 | 0.00 | 0.00 | 0.00 | 44 | 986.1 |
| 20260506174013 | 39 | 299 | 8.7 | 14.8 | 0.00 | 0.00 | 0.00 | 42 | 986.2 |
| 20260506173512 | 39 | 303 | 7.0 | 16.5 | 0.00 | 0.00 | 0.00 | 43 | 986.0 |
| 20260506173011 | 39 | 312 | 9.6 | 16.5 | 0.00 | 0.00 | 0.00 | 43 | 986.2 |
| 20260506172510 | 39 | 343 | 8.7 | 14.8 | 0.00 | 0.00 | 0.00 | 42 | 986.3 |
| 20260506172109 | 38 | 326 | 9.6 | 16.5 | 0.00 | 0.00 | 0.00 | 43 | 986.2 |
| 20260506171507 | 38 | 5 | 7.0 | 16.5 | 0.00 | 0.00 | 0.00 | 43 | 986.3 |
| 20260506171005 | 38 | 350 | 8.7 | 14.8 | 0.00 | 0.00 | 0.00 | 43 | 986.2 |
| 20260506170504 | 38 | 339 | 9.6 | 15.6 | 0.00 | 0.00 | 0.00 | 42 | 986.3 |
| 20260506170004 | 38 | 294 | 7.8 | 15.6 | 0.00 | 0.00 | 0.00 | 44 | 986.5 |
| 20260506165502 | 37 | 346 | 8.7 | 16.5 | 0.00 | 0.00 | 0.00 | 44 | 986.5 |
| 20260506165002 | 37 | 325 | 8.7 | 16.5 | 0.00 | 0.00 | 0.00 | 42 | 986.6 |
| 20260506164601 | 37 | 342 | 8.7 | 18.2 | 0.00 | 0.00 | 0.00 | 43 | 986.6 |
| 20260506164057 | 37 | 333 | 8.7 | 18.2 | 0.00 | 0.00 | 0.00 | 45 | 986.5 |
| 20260506163557 | 37 | 343 | 9.6 | 14.8 | 0.00 | 0.00 | 0.00 | 44 | 986.5 |
| 20260506163104 | 37 | 325 | 7.8 | 12.2 | 0.00 | 0.00 | 0.00 | 47 | 986.6 |
| 20260506162556 | 37 | 262 | 7.8 | 12.2 | 0.00 | 0.00 | 0.00 | 46 | 986.6 |
| 20260506162056 | 37 | 323 | 7.0 | 11.3 | 0.00 | 0.00 | 0.00 | 47 | 986.6 |
| 20260506161600 | 37 | 332 | 6.1 | 13.0 | 0.00 | 0.00 | 0.00 | 48 | 986.6 |
| 20260506161053 | 37 | 324 | 7.0 | 13.9 | 0.00 | 0.00 | 0.00 | 49 | 986.7 |
| 20260506160552 | 37 | 322 | 8.7 | 13.9 | 0.00 | 0.00 | 0.00 | 49 | 986.8 |
| 20260506160051 | 36 | 304 | 7.8 | 13.0 | 0.00 | 0.00 | 0.00 | 51 | 986.7 |
| 20260506155549 | 36 | 306 | 7.0 | 13.0 | 0.00 | 0.00 | 0.00 | 52 | 986.8 |
| 20260506155048 | 36 | 355 | 5.2 | 12.2 | 0.00 | 0.00 | 0.00 | 53 | 986.9 |
| 20260506154552 | 36 | 323 | 8.7 | 12.2 | 0.00 | 0.00 | 0.00 | 52 | 986.9 |
| 20260506154046 | 36 | 15 | 6.1 | 13.0 | 0.00 | 0.00 | 0.00 | 54 | 986.8 |
| 20260506153545 | 36 | 344 | 6.1 | 13.0 | 0.00 | 0.00 | 0.00 | 53 | 986.8 |
| 20260506153047 | 35 | 284 | 7.8 | 11.3 | 0.00 | 0.00 | 0.00 | 53 | 986.8 |
| 20260506152545 | 36 | 331 | 7.8 | 12.2 | 0.00 | 0.00 | 0.00 | 52 | 986.9 |
| 20260506152047 | 36 | 355 | 7.8 | 12.2 | 0.00 | 0.00 | 0.00 | 51 | 986.8 |
| 20260506151544 | 36 | 355 | 7.0 | 11.3 | 0.00 | 0.00 | 0.00 | 52 | 986.7 |
| 20260506151044 | 36 | 344 | 7.0 | 11.3 | 0.00 | 0.00 | 0.00 | 52 | 986.8 |
| 20260506150543 | 36 | 304 | 7.8 | 11.3 | 0.00 | 0.00 | 0.00 | 51 | 986.7 |
| 20260506150043 | 36 | 310 | 7.0 | 12.2 | 0.00 | 0.00 | 0.00 | 52 | 986.8 |
| 20260506145542 | 36 | 300 | 7.0 | 11.3 | 0.00 | 0.00 | 0.00 | 52 | 986.8 |
| 20260506145042 | 36 | 355 | 6.1 | 10.4 | 0.00 | 0.00 | 0.00 | 52 | 986.8 |
| 20260506144544 | 36 | 287 | 6.1 | 11.3 | 0.00 | 0.00 | 0.00 | 52 | 986.7 |
| 20260506144042 | 36 | 332 | 5.2 | 11.3 | 0.00 | 0.00 | 0.00 | 52 | 986.7 |
| 20260506143542 | 36 | 319 | 6.1 | 11.3 | 0.00 | 0.00 | 0.00 | 52 | 986.7 |
| 20260506143041 | 36 | 311 | 7.0 | 11.3 | 0.00 | 0.00 | 0.00 | 51 | 986.7 |
| 20260506142540 | 36 | 325 | 4.3 | 11.3 | 0.00 | 0.00 | 0.00 | 53 | 986.6 |
| 20260506142042 | 36 | 324 | 6.1 | 10.4 | 0.00 | 0.00 | 0.00 | 52 | 986.6 |
| 20260506141538 | 35 | 297 | 7.0 | 10.4 | 0.00 | 0.00 | 0.00 | 52 | 986.7 |
| 20260506141038 | 35 | 297 | 6.1 | 9.6 | 0.00 | 0.00 | 0.00 | 53 | 986.7 |
| 20260506140537 | 35 | 325 | 7.8 | 11.3 | 0.00 | 0.00 | 0.00 | 52 | 986.7 |
| 20260506140042 | 35 | 333 | 7.0 | 10.4 | 0.00 | 0.00 | 0.00 | 52 | 986.8 |
| 20260506135535 | 35 | 317 | 6.1 | 11.3 | 0.00 | 0.00 | 0.00 | 52 | 986.6 |
| 20260506135035 | 35 | 325 | 7.0 | 11.3 | 0.00 | 0.00 | 0.00 | 52 | 986.8 |
| 20260506134535 | 35 | 290 | 7.0 | 9.6 | 0.00 | 0.00 | 0.00 | 52 | 986.8 |
| 20260506134035 | 35 | 342 | 6.1 | 8.7 | 0.00 | 0.00 | 0.00 | 52 | 986.8 |
| 20260506133535 | 35 | 292 | 5.2 | 9.6 | 0.00 | 0.00 | 0.00 | 52 | 986.7 |
| 20260506133034 | 35 | 309 | 6.1 | 9.6 | 0.00 | 0.00 | 0.00 | 52 | 986.7 |
| 20260506132532 | 34 | 292 | 4.3 | 9.6 | 0.00 | 0.00 | 0.00 | 52 | 986.7 |
| 20260506132032 | 34 | 244 | 4.3 | 10.4 | 0.00 | 0.00 | 0.00 | 53 | 986.7 |
| 20260506131534 | 34 | 292 | 7.0 | 10.4 | 0.00 | 0.00 | 0.00 | 53 | 986.7 |
| 20260506131028 | 34 | 309 | 4.3 | 9.6 | 0.00 | 0.00 | 0.00 | 53 | 986.8 |
| 20260506130529 | 34 | 336 | 4.3 | 9.6 | 0.00 | 0.00 | 0.00 | 53 | 986.7 |
| 20260506130029 | 33 | 308 | 5.2 | 8.7 | 0.00 | 0.00 | 0.00 | 53 | 986.6 |
| 20260506125526 | 33 | 294 | 3.5 | 7.0 | 0.00 | 0.00 | 0.00 | 53 | 986.6 |
| 20260506125027 | 33 | 286 | 4.3 | 7.8 | 0.00 | 0.00 | 0.00 | 53 | 986.7 |
| 20260506124525 | 33 | 292 | 2.6 | 7.8 | 0.00 | 0.00 | 0.00 | 53 | 986.6 |
| 20260506124027 | 33 | 286 | 3.5 | 7.0 | 0.00 | 0.00 | 0.00 | 54 | 986.6 |
| 20260506123524 | 33 | 260 | 2.6 | 6.1 | 0.00 | 0.00 | 0.00 | 54 | 986.6 |
| 20260506123023 | 32 | 271 | 3.5 | 7.0 | 0.00 | 0.00 | 0.00 | 54 | 986.6 |
| 20260506122523 | 32 | 276 | 3.5 | 7.0 | 0.00 | 0.00 | 0.00 | 55 | 986.6 |
| 20260506122021 | 32 | 275 | 3.5 | 7.0 | 0.00 | 0.00 | 0.00 | 55 | 986.6 |
| 20260506121521 | 32 | 267 | 3.5 | 6.1 | 0.00 | 0.00 | 0.00 | 56 | 986.5 |
| 20260506121020 | 32 | 265 | 2.6 | 4.3 | 0.00 | 0.00 | 0.00 | 56 | 986.5 |
| 20260506120521 | 32 | 278 | 2.6 | 6.1 | 0.00 | 0.00 | 0.00 | 56 | 986.4 |
| 20260506120029 | 31 | 255 | 2.6 | 6.1 | 0.00 | 0.00 | 0.00 | 56 | 986.3 |
| 20260506115521 | 31 | 269 | 1.7 | 5.2 | 0.00 | 0.00 | 0.00 | 55 | 986.4 |
| 20260506115020 | 31 | 272 | 1.7 | 3.5 | 0.00 | 0.00 | 0.00 | 56 | 986.3 |
| 20260506114521 | 31 | 260 | 1.7 | 4.3 | 0.00 | 0.00 | 0.00 | 55 | 986.3 |
| 20260506114020 | 31 | 254 | 2.6 | 4.3 | 0.00 | 0.00 | 0.00 | 55 | 986.4 |
| 20260506113520 | 31 | 271 | 1.7 | 4.3 | 0.00 | 0.00 | 0.00 | 56 | 986.3 |
| 20260506113020 | 31 | 239 | 2.6 | 4.3 | 0.00 | 0.00 | 0.00 | 56 | 986.2 |
| 20260506112519 | 31 | 245 | 2.6 | 3.5 | 0.00 | 0.00 | 0.00 | 56 | 986.2 |
| 20260506112019 | 31 | 254 | 1.7 | 3.5 | 0.00 | 0.00 | 0.00 | 56 | 986.3 |
| 20260506111523 | 31 | 254 | 2.6 | 3.5 | 0.00 | 0.00 | 0.00 | 56 | 986.3 |
| 20260506111019 | 31 | 277 | 0.9 | 2.6 | 0.00 | 0.00 | 0.00 | 56 | 986.3 |
| 20260506110518 | 31 | 277 | 0.9 | 2.6 | 0.00 | 0.00 | 0.00 | 56 | 986.3 |
| 20260506110019 | 31 | 277 | 0.9 | 2.6 | 0.00 | 0.00 | 0.00 | 56 | 986.2 |
| 20260506105519 | 31 | 277 | 0.9 | 2.6 | 0.00 | 0.00 | 0.00 | 56 | 986.2 |
| 20260506105018 | 31 | 277 | 0.9 | 2.6 | 0.00 | 0.00 | 0.00 | 56 | 986.3 |
| 20260506104518 | 31 | 277 | 0.9 | 2.6 | 0.00 | 0.00 | 0.00 | 56 | 986.2 |
| 20260506104018 | 31 | 277 | 0.0 | 2.6 | 0.00 | 0.00 | 0.00 | 56 | 986.2 |
| 20260506103518 | 31 | 277 | 0.9 | 2.6 | 0.00 | 0.00 | 0.00 | 56 | 986.2 |
| 20260506103021 | 31 | 277 | 0.9 | 3.5 | 0.00 | 0.00 | 0.00 | 56 | 986.3 |
| 20260506102521 | 31 | 277 | 0.9 | 3.5 | 0.00 | 0.00 | 0.00 | 56 | 986.3 |
| 20260506102018 | 31 | 277 | 1.7 | 3.5 | 0.00 | 0.00 | 0.00 | 56 | 986.2 |
| 20260506101519 | 31 | 277 | 1.7 | 2.6 | 0.00 | 0.00 | 0.00 | 56 | 986.3 |
| 20260506101017 | 31 | 277 | 0.9 | 3.5 | 0.00 | 0.00 | 0.00 | 56 | 986.4 |
| 20260506100517 | 31 | 301 | 1.7 | 4.3 | 0.00 | 0.00 | 0.00 | 56 | 986.4 |
| 20260506100017 | 31 | 256 | 1.7 | 4.3 | 0.00 | 0.00 | 0.00 | 56 | 986.4 |
| 20260506095519 | 31 | 281 | 1.7 | 3.5 | 0.00 | 0.00 | 0.00 | 56 | 986.5 |
| 20260506095016 | 31 | 261 | 1.7 | 3.5 | 0.00 | 0.00 | 0.00 | 56 | 986.5 |
| 20260506094517 | 31 | 261 | 1.7 | 3.5 | 0.00 | 0.00 | 0.00 | 56 | 986.4 |